• MPC Preparation (Info)

  • MPEC 2017-R08 : 2017 QY34

    The following Minor Planet Electronic Circular may be linked-to from your own Web pages, but must not otherwise be redistributed electronically.

    A form allowing access to any MPEC is at the bottom of this page.


    Read MPEC 2017-R07 Read MPEC 2017-R09


    M.P.E.C. 2017-R08                                Issued 2017 Sept. 1, 13:58 UT
    
         The Minor Planet Electronic Circulars contain information on unusual
             minor planets and routine data on comets.  They are published
        on behalf of Division F of the International Astronomical Union by the
              Minor Planet Center, Smithsonian Astrophysical Observatory,
                              Cambridge, MA 02138, U.S.A.
    
                 Prepared using the Tamkin Foundation Computer Network
    
                                  MPC@CFA.HARVARD.EDU
                URL https://www.minorplanetcenter.net/    ISSN 1523-6714
    
                                       2017 QY34
    
    Observations:
         K17Q34Y* C2017 08 30.25066 16 40 42.15 +23 30 13.1          18.5 oLER008T05
         K17Q34Y  C2017 08 30.27212 16 41 09.48 +23 30 27.8          17.7 oLER008T05
         K17Q34Y  C2017 08 30.28188 16 41 21.91 +23 30 34.6          18.2 oLER008T05
         K17Q34Y  C2017 08 30.29061 16 41 33.09 +23 30 40.0          18.2 oLER008T05
         K17Q34Y  C2017 08 30.29946 16 41 44.34 +23 30 46.0          17.9 oLER008T05
         K17Q34Y KC2017 08 30.78187 16 51 47.21 +23 34 53.7          18.3 VtER008L04
         K17Q34Y KC2017 08 30.79025 16 51 56.81 +23 34 56.6          18.2 VtER008L04
         K17Q34Y KC2017 08 30.80240 16 52 10.76 +23 35 00.8          18.5 VtER008L04
         K17Q34Y KC2017 08 30.82886 16 52 41.83 +23 35 18.1          18.1  UER008104
         K17Q34Y KC2017 08 30.83545 16 52 49.31 +23 35 19.8          17.9  UER008104
         K17Q34Y KC2017 08 30.85194 16 53 08.01 +23 35 24.5          17.7  UER008104
         K17Q34Y KC2017 08 30.88558 16 53 46.13 +23 35 28.0                qER008595
         K17Q34Y KC2017 08 30.89072 16 53 51.98 +23 35 29.1          18.4 VqER008595
         K17Q34Y KC2017 08 30.89561 16 53 58.88 +23 35 27.3                UER008J95
         K17Q34Y KC2017 08 30.89640 16 53 59.77 +23 35 27.8                UER008J95
         K17Q34Y KC2017 08 30.89737 16 54 00.87 +23 35 27.6          18.0 GUER008J95
         K17Q34Y KC2017 08 30.93835 16 54 46.98 +23 35 37.7          17.6 GUER008J69
         K17Q34Y KC2017 08 30.94893 16 54 58.87 +23 35 39.0          17.7 GUER008J69
         K17Q34Y KC2017 08 30.95422 16 55 04.85 +23 35 40.2          17.7 GUER008J69
         K17Q34Y  C2017 08 31.12573 16 58 18.68 +23 37 21.1          18.3 VqER008I52
         K17Q34Y  C2017 08 31.12615 16 58 19.11 +23 37 21.1          18.2 VqER008I52
         K17Q34Y  C2017 08 31.12656 16 58 19.56 +23 37 21.2          18.4 VqER008I52
         K17Q34Y  C2017 08 31.12697 16 58 20.00 +23 37 21.3          18.3 VqER008I52
         K17Q34Y  C2017 08 31.13153116 58 24.43 +23 37 18.0          17.9 GUER008H01
         K17Q34Y  C2017 08 31.14064816 58 34.04 +23 37 19.3          17.9 GUER008H01
         K17Q34Y  C2017 08 31.15080516 58 44.73 +23 37 20.4          17.9 GUER008H01
         K17Q34Y  C2017 08 31.15415716 58 48.26 +23 37 20.7          17.9 GUER008H01
         K17Q34Y  C2017 08 31.25343 17 00 36.328+23 38 10.45         18.1 iLER008F51
         K17Q34Y  C2017 08 31.27424 17 00 57.514+23 38 11.76         18.2 iLER008F51
         K17Q34Y  C2017 08 31.28494 17 01 08.393+23 38 12.03               LER008F51
         K17Q34Y |C2017 08 31.38827 17 02 58.94 +23 39 56.1          17.7 RvER008Q62
         K17Q34Y |C2017 08 31.39226 17 03 02.95 +23 39 55.7          17.8 RvER008Q62
         K17Q34Y |C2017 08 31.39491 17 03 05.52 +23 39 55.6          17.8 RvER008Q62
         K17Q34Y  C2017 08 31.50116 17 04 51.81 +23 38 06.0          18.3 RrER008P93
         K17Q34Y  C2017 08 31.50209 17 04 52.75 +23 38 05.8          18.1 RrER008P93
         K17Q34Y  C2017 08 31.50393 17 04 54.53 +23 38 06.2          18.1 RrER008P93
         K17Q34Y  C2017 08 31.50484 17 04 55.41 +23 38 05.8          18.1 RrER008P93
         K17Q34Y  C2017 08 31.50576 17 04 56.33 +23 38 05.8          18.2 RrER008P93
         K17Q34Y  C2017 08 31.55503 17 05 44.28 +23 37 58.4          18.2 VqER008900
         K17Q34Y  C2017 08 31.55870 17 05 47.97 +23 37 57.8          18.8 VqER008900
         K17Q34Y KC2017 08 31.82794 17 10 11.54 +23 37 42.6          18.0 RoER008K88
         K17Q34Y KC2017 08 31.83023 17 10 13.63 +23 37 42.0          17.9 RoER008K88
         K17Q34Y KC2017 08 31.83253 17 10 15.72 +23 37 41.8          17.8 RoER008K88
         K17Q34Y KC2017 08 31.87173 17 10 53.32 +23 37 35.3                UER008J95
         K17Q34Y KC2017 08 31.87297 17 10 54.45 +23 37 35.3                UER008J95
         K17Q34Y KC2017 08 31.87424 17 10 55.59 +23 37 34.9          18.3 GUER008J95
         K17Q34Y KC2017 09 01.12005 17 14 40.75 +23 37 43.6          18.1 VqER008G48
         K17Q34Y KC2017 09 01.12320 17 14 43.72 +23 37 43.3          18.0 RoER008291
         K17Q34Y KC2017 09 01.12365 17 14 44.10 +23 37 43.4          17.9 RoER008291
         K17Q34Y KC2017 09 01.12376 17 14 43.84 +23 37 42.7          18.0 VqER008G48
         K17Q34Y KC2017 09 01.12410 17 14 44.46 +23 37 43.2          18.0 RoER008291
         K17Q34Y KC2017 09 01.12748 17 14 47.09 +23 37 42.4          17.5 VqER008G48
         K17Q34Y  C2017 09 01.24690 17 16 28.39 +23 37 05.0          18.2 VqER008G96
         K17Q34Y  C2017 09 01.25634 17 16 36.38 +23 37 01.3          18.1 VqER008G96
         K17Q34Y  C2017 09 01.26011 17 16 39.58 +23 36 59.9          18.0 VqER008G96
         K17Q34Y  C2017 09 01.26390 17 16 42.82 +23 36 58.4          18.1 VqER008G96
    
    Observer details:
    104 San Marcello Pistoiese.  Observers P. Bacci, M. Maestripieri.  Measurers
        P. Bacci, L. Tesi, G. Fagioli.  0.60-m f/4 reflector + CCD.
    291 LPL/Spacewatch II.  Observer R. A. Mastaler.  1.8-m f/2.7 reflector + CCD.
    595 Farra d'Isonzo.  Observer E. Pettarin.  0.61-m f/4.0 reflector + CCD.
    900 Moriyama.  Observer Y. Ikari.  0.26-m f/7.0 reflector + CCD.
    F51 Pan-STARRS 1, Haleakala.  Observers J. Bulger, T. Goggia, T. Lowe,
        A. Schultz, M. Willman.  Measurers K. Chambers, S. Chastel, L. Denneau,
        H. Flewelling, M. Huber, E. Lilly, E. Magnier, R. Wainscoat, C. Waters,
        R. Weryk.  1.8-m Ritchey-Chretien + CCD.
    G48 Harlingten Research Observatory, Rancho Hildalgo.  Observers C. Harlingten,
        M. Mills.  Measurer M. Mills.  0.40-m f/6.7 Ritchey-Chretien + CCD.
    G96 Mt. Lemmon Survey.  Observer J. A. Johnson.  Measurers E. J. Christensen,
        D. C. Fuls, A. R. Gibbs, A. D. Grauer, J. A. Johnson, R. A. Kowalski,
        S. M. Larson, G. J. Leonard, R. G. Matheny, R. L. Seaman, F. C. Shelly.
        1.5-m reflector + 10K CCD.
    H01 Magdalena Ridge Observatory, Socorro.  Observers W. H. Ryan, E. V. Ryan.
        Measurer W. H. Ryan.  2.4-m f/8.9 reflector + CCD.
    I52 Steward Observatory, Mt. Lemmon Station.  Observer R. A. Kowalski.
        Measurers E. J. Christensen, D. C. Fuls, A. R. Gibbs, A. D. Grauer,
        J. A. Johnson, R. A. Kowalski, S. M. Larson, G. J. Leonard, R. G. Matheny,
        R. L. Seaman, F. C. Shelly.  1.0-m reflector + CCD.
    J69 North Observatory, Clanfield.  Observer D. Briggs.  0.41-m f/4.5 Newtonian
        reflector + CCD.
    J95 Great Shefford.  Observer P. Birtwhistle.  0.40-m f/6.0 Schmidt-Cassegrain
        + CCD.
    K88 GINOP-KHK, Piszkesteto.  Observer K. Sarneczky.  0.60-m Schmidt + CCD.
    L04 ROASTERR-1 Observatory, Cluj-Napoca.  Observer L. Hudin.  0.3-m f/5.0
        reflector + CCD.
    P93 Space Tracking and Communications Center, JAXA.  Observers S. Urakawa,
        T. Fujiwara.  1.0-m f/3.0 reflector + CCD.
    Q62 iTelescope Observatory, Siding Spring.  Observers S. Foglia, L. Buzzi,
        P. Concari, C. Cremaschini, G. Galli, M. Tombelli.  0.15-m f/7 refractor
        + CCD.
    T05 ATLAS-HKO, Haleakala.  Observers L. Denneau, A. Heinze, H. Weiland,
        B. Stalder, J. Tonry.  Measurers L. Denneau, A. Heinze, J. Tonry.  0.5-m
        f/2.0 Schmidt + CCD.
    
    Orbital elements:
    2017 QY34                                           PHA, Earth MOID = 0.0323 AU
    Epoch 2017 Sept. 4.0 TT = JDT 2458000.5                 MPC
    M 112.55091              (2000.0)            P               Q
    n   1.34365540     Peri.  222.72315     -0.94128636     +0.23932938
    a   0.8133500      Node   328.63641     +0.00164960     -0.70204555
    e   0.4150096      Incl.   27.22676     -0.33760519     -0.67071119
    P   0.73           H   20.9           G   0.15           U   8
    Residuals in seconds of arc
    170830 T05  0.4+  0.4+    170831 I52  0.2-  0.0     170831 900  0.6-  0.1+
    170830 T05  0.4-  0.2-    170831 I52  0.4-  0.1-    170831 900  0.8+  0.1+
    170830 T05  0.5-  0.1+    170831 I52  0.1-  0.0     170831 K88  0.0   0.3+
    170830 T05  0.3+  0.2-    170831 I52  0.0   0.0     170831 K88  0.2-  0.1+
    170830 T05  0.2+  0.2+    170831 H01  0.2-  0.1-    170831 K88  0.6-  0.3+
    170830 L04  0.1+  0.4-    170831 H01  0.1-  0.1+    170831 J95  0.1+  0.2-
    170830 L04  0.1-  0.3-    170831 H01  0.1-  0.0     170831 J95  0.1+  0.1+
    170830 L04  0.2+  0.0     170831 H01  0.1-  0.0     170831 J95  0.1-  0.1-
    170830 104  0.2-  0.0     170831 F51  0.1-  0.2+    170901 G48  0.2+  0.0
    170830 104  0.2-  0.2-    170831 F51  0.2-  0.2+    170901 291  0.2+  0.0
    170830 104  0.4-  0.1+    170831 F51  0.2-  0.1+    170901 291  0.2+  0.2+
    170830 595  0.1-  0.2+    170831 Q62  0.4+  0.1+    170901 G48  0.7-  0.0
    170830 595  0.2+  0.3+    170831 Q62  1.1+  0.4-    170901 291  0.1-  0.1+
    170830 J95  0.0   0.1-    170831 Q62  0.3+  0.6-    170901 G48  0.5+  0.5+
    170830 J95  0.0   0.2+    170831 P93  0.0   0.4-    170901 G96  0.1-  0.0
    170830 J95  0.0   0.2-    170831 P93  0.4+  0.5-    170901 G96  0.2-  0.1-
    170830 J69  0.6+  0.5+    170831 P93  0.2+  0.0     170901 G96  0.2-  0.1-
    170830 J69  0.5+  0.1-    170831 P93  0.0   0.3-    170901 G96  0.2+  0.1-
    170830 J69  1.0+  0.2+    170831 P93  0.3+  0.2-
    
    Ephemeris:
    2017 QY34                a,e,i = 0.81, 0.42, 27                  q = 0.4758
    Date    TT    R. A. (2000) Decl.     Delta      r     Elong.  Phase     V
    2017 08 02    08 10 59.7 -14 49 02   0.2422  0.8250    33.9   136.6    23.8
    ...
    2017 08 17    09 15 25.5 -11 11 31   0.09002 0.9322    25.8   151.8    24.3
    ...
    2017 08 25    13 15 27.9 +13 07 58   0.04236 0.9809    44.1   134.2    20.1
    ...
    2017 08 31    16 56 00.6 +23 37 06   0.07518 1.0133    90.8    84.9    18.3
    2017 09 01    17 12 53.7 +23 38 17   0.08359 1.0184    94.0    81.4    18.4
    2017 09 02    17 26 39.7 +23 34 09   0.09228 1.0234    96.4    78.5    18.5
    ...
    2017 09 08    18 14 04.0 +22 44 05   0.1473  1.0512   103.3    68.9    19.3
    ...
    2017 09 16    18 41 52.9 +21 46 54   0.2226  1.0829   104.5    64.0    20.1
    ...
    2017 10 01    19 09 56.5 +20 35 24   0.3609  1.1259   100.8    60.9    21.1
    
    A. U. Tomatic                (C) Copyright 2017 MPC           M.P.E.C. 2017-R08
    

    Read MPEC 2017-R07 Read MPEC 2017-R09


    MPEC number:

    Enter an MPEC number in one of the following forms:

    • 1997-B01 (the full form)
    • J97B01 (the packed version of the full form)
    • B01 (the abbreviated form)